Regional Weather Roundup
Issued by NWS Sterling, VA

Home | Current Version | Previous Version | Text Only | Print | Product List | Glossary On
Versions: 1 2 3 4 5 6 7 8 9 10 11 12 13 14 15 16 17 18 19 20 21 22 23 24 25 26 27 28 29 30 31 32 33 34 35 36 37 38 39 40 41 42 43 44 45 46 47 48 49 50
000
ASUS41 KLWX 202010
RWRLWX

REGIONAL WEATHER ROUNDUP
NATIONAL WEATHER SERVICE BALTIMORE MD/WASHINGTON DC
300 PM EST TUE FEB 20 2018

Note: "FAIR" indicates few or no clouds below 12,000 feet
with no significant weather and/or obstructions to visibility.
 TC=TEMPERATURE CELSIUS

 * =Non NWS site. Station does not report precipitation (e.g. rain,
    snow, etc.), thunder, or fog.

DCZ001-MDZ009-015-VAZ040>042-051-053>054-202100-
WASHINGTON METRO

CITY           SKY/WX    TMP DP  RH WIND       PRES   REMARKS
WASHINGTON NAT PTSUNNY   77  56  48 S17G25    30.28F
DULLES         PTSUNNY   77  57  50 SW15G29   30.27S
ANDREWS AFB    FAIR      75  56  51 SW17G24   30.29S
FT BELVOIR     FAIR      76  55  48 S8G20     30.29S
COLLEGE PARK*  FAIR      76  56  50 S8G18     30.28S
LEESBURG*      FAIR      79  57  47 SW18      30.27F
MANASSAS*      FAIR      77  57  50 S15G21    30.28F
GAITHERSBURG*  FAIR      78  57  48 S13G20    30.28S

$$

MDZ006>007-011-014-202100-
BALTIMORE METRO

CITY           SKY/WX    TMP DP  RH WIND       PRES   REMARKS
BWI AIRPORT    FAIR      76  57  51 SW17G30   30.27S
MD SCIENCE CTR   N/A     77  57  50 MISG      30.26F
MARTIN STATE   MOSUNNY   64  59  82 SE9       30.30F
ANNAPOLIS      FAIR      51  48  89 SE12      30.29S
FORT MEADE*    FAIR      77  55  47 S18       30.30S

$$

MDZ012-015-019>023-202100-
MARYLAND EASTERN SHORE

CITY           SKY/WX    TMP DP  RH WIND       PRES   REMARKS
OCEAN CITY     FAIR      61  56  83 VRB6      30.38F
SALISBURY      FAIR      67  61  81 S15       30.37S
BAY BRIDGE AP* FAIR      70  57  64 S16G24    30.30S
CAMBRIDGE*     SUNNY     70  61  73 S12       30.34S
EASTON*        SUNNY     73  57  56 SW14      30.36F

$$

MDZ017>025-202100-
SOUTHERN MARYLAND

CITY           SKY/WX    TMP DP  RH WIND       PRES   REMARKS
PATUXENT RIVER MOSUNNY   72  61  68 SE9G20    30.33F
ST INIGOES     FAIR      71  51  49 S12       30.33F
LEONARDTOWN*   FAIR      73  61  64 S8        30.34F

$$

MDZ003>005-202100-
NORTH CENTRAL MARYLAND

CITY           SKY/WX    TMP DP  RH WIND       PRES   REMARKS
FREDERICK*     SUNNY     79  54  41 SW12G17   30.28F
HAGERSTOWN APT FAIR      78  54  43 S17       30.21F
WESTMINSTER*   FAIR      79  57  47 S12       30.26F

$$

MDZ501>502-202100-
WESTERN MARYLAND

CITY           SKY/WX    TMP DP  RH WIND       PRES   REMARKS
OAKLAND*       FAIR      70  48  46 S9G18     30.27F
CUMBERLAND*    FAIR      81  52  36 S12       30.22F

$$

VAZ025>031-202100-
SHENANDOAH VALLEY

CITY           SKY/WX    TMP DP  RH WIND       PRES   REMARKS
WINCHESTER*    FAIR      77  52  41 S10G22    30.25F
FRONT ROYAL*   FAIR      79  52  38 S10G21    30.23F
LURAY*         FAIR      79  52  38 S13G22    30.25F
NEW MARKET*    FAIR      77  48  35 SW14G28   30.23F
STAUNTON*      PTSUNNY   74  55  49 S13G18    30.31S
WAYNESBORO*    FAIR      74  55  52 S17G24    30.31S

$$

WVZ021-048>050-054>055-202100-
EASTERN WEST VIRGINIA PANHANDLE

CITY           SKY/WX    TMP DP  RH WIND       PRES   REMARKS
MARTINSBURG    FAIR      80  54  40 S14G20    30.21F
PETERSBURG*    FAIR      79  53  41 S7        30.21F

$$

VAZ036>039-050-202100-
CENTRAL FOOTHILLS

CITY           SKY/WX    TMP DP  RH WIND       PRES   REMARKS
CHARLOTTESVILL FAIR      76  57  51 S16G26    30.30F
CULPEPER*      FAIR      77  54  44 S15G26    30.29F
ORANGE*        FAIR      73  55  53 S8G26     30.30F
GORDONSVILLE*  FAIR      74  59  58 S16G28    30.30F
WARRENTON*     FAIR      78  51  39 SW13G23   30.28F

$$

VAZ055>057-202100-
NORTH AND CENTRAL PIEDMONT

CITY           SKY/WX    TMP DP  RH WIND       PRES   REMARKS
FREDERICKSBRG* FAIR      77  58  50 SW10      30.30F
STAFFORD*      FAIR      77  56  47 SW12G21   30.34F

$$

NCZ024-NYZ072-PAZ021-071-VAZ022-071-202100-
OTHER REGIONAL OBSERVATIONS

CITY           SKY/WX    TMP DP  RH WIND       PRES   REMARKS
NEW YORK CITY  FAIR      65  54  67 W7        30.30S
PHILADELPHIA   PTSUNNY   71  57  61 W8        30.29F
PITTSBURGH     PTSUNNY   76  52  43 S13G18    30.15F
ROANOKE        FAIR      75  53  46 SW16G24   30.34F
RICHMOND       FAIR      75  62  64 S14       30.35F
RALEIGH        FAIR      69  63  81 W8        30.41F

$$

ANZ530>537-202100-
MARINE OBSERVATIONS

STATION/POSITION TIME  TEMP    WIND        PRES
                       AIR SEA DIR/SP/G
                 (UTC) (F)     (DEG/KT/KT) (MB)
THOMAS PT LIGHT  2000   53 40  180/ 20/ 21   N/A
BALT KEY BRIDGE  1948   75     220/ 15/ 19 1024.8F
COVE POINT       1948          180/ 17/ 18 1027.8F
LEWISETTA        1948   68 47  220/ 11/ 15 1027.4F
SOLOMONS ISLAND  1948   67 42  170/ 11/ 16 1026.7F
PINEY POINT      1948          190/ 12/ 14   N/A

$$




USA.gov is the U.S. government's official web portal to all federal, state and local government web resources and services.